SCP
0 0 0 0 0 0 0 0 0 0 0 0 0 0 0 0 0 0 0 0 0 0 0 0 0 0 0 0 0 0 0 0 0 0 0 0 0 0
0 0 0 0 0 0 0 0 0 0 0 0 0 0 0 0 0 0 0 0 0 0 0 0 0 0 0 0 0 0 0 0 0 0 0 0 0 0
0 0 0 0 0 0 0 0 0 0 0 0 0 0 0 0 0 0 0 0 0 0 0 0 0 0 0 0 0 0 0 0 0 0 0 0 0 0
0 0 0 0 0 0 0 0 0 0 0 0 0 0 0 0 0 0 0 0 0 0 0 0 0 0 0 0 0 0 0 0 0 0 -0 0 0 0
0 0 0 0 0 0 0 0 0 0 0 0 0 0 0 0 0 0 0 0 0 0 0 0 0 0 0 0 0 0 0 0 0 0 0 0 0 0
0 0 0 0 0 0 0 0 0 0 0 0 0 0 0 0 0 0 0 0 0 0 0 0 0 0 0 0 0 0 0 0 0 0 0 0 0 0
0 0 0 0 0 0 0 0 0 0 0 0 0 0 0 0 0 0 0 0 0 0 0 0 0 0 0 0 0 0 0 0 -0 0 0 0 0 0
0 0 0 0 0 0 0 0 0 0 0 0 0 0 0 0 0 0 0 0 0 0 0 0 0 0 0 0 0 0 0 0 0 0 0 0 0 0
0 0 0 0 0 0 0 0 0 0 0 0 0 0 0 0 0 0 0 0 0 0 0 0 0 0 0 0 0 0 0 0 0 0 0 0 0 0
0 0 0 0 0 0 0 0 0 0 0 0 0 0 0 0 0 0 0 0 0 0 0 0 0 0 0 0 0 0 -0 0 0 0 0 0 0 0
0 0 0 0 0 0 0 0 0 0 0 0 0 0 0 0 0 0 0 0 0 0 0 0 0 0 0 0 0 0 0 0 0 0 0 0 0 0
0 0 0 0 0 0 0 0 0 0 0 0 0 0 0 0 0 0 0 0 0 0 0 0 0 0 0 0 0 0 0 0 0 0 0 -0 0 -0
0 0 0 0 0 0 0 0 0 0 0 0 0 0 0 0 0 0 0 0 0 0 0 0 0 0 0 0 0 0 0 0 0 0 0 0 0 0
0 0 0 0 0 -0 0 0 0 0 0 0 0 0 0 0 0 0 0 0 0 0 0 0 0 0 0 0 0 0 0 0 0 0 0 0 0 -0
0 0 0 0 -0 0 0 -0 0 0 0 0 0 0 0 0 0 0 0 0 0 0 0 0 0 0 0 0 0 0 0 0 0 0 0 0 0 0
0 0 0 -0 -0 -0 0 0 0 0 0 0 0 0 0 0 -0 0 -0 0 0 0 0 0 0 0 0 0 0 0 0 0 0 0 0 0 0 0
0 0 0 0 0 0 0 0 0 0 0 0 0 0 0 0 -0 -0 -0 -0 -0 0 0 0 0 0 0 0 0 0 0 0 0 0 0 0 0 0
0 0 0 0 0 0 0 0 0 0 0 0 0 0 0 0 -0 -0 -0 -0 -0 0 0 0 0 0 0 0 0 0 0 -0 -0 0 0 0 0 0
0 0 0 0 0 0 0 0 0 0 0 0 0 0 0 0 -0 -0 -0 -0 -0 0 0 0 0 0 0 0 0 0 0 -0 -0 0 -0 0 -0 0
0 0 0 0 0 0 0 0 0 0 0 0 0 0 0 0 -0 -0 -0 -0 -0 0 0 0 0 0 0 0 0 0 0 -0 -0 -0 0 0 0 0
0 0 0 0 0 0 0 0 0 0 0 0 0 0 0 -0 -0 -0 -0 -0 -0 0 -0 0 0 0 0 -0 0 0 0 -0 -0 -0 0 0 0 0
0 0 0 0 0 0 0 0 0 0 0 0 0 0 -0 -0 -0 -0 -0 -0 -0 -0 -0 -0 0 0 0 -0 0 -0 0 -0 -0 -0 -0 0 0 0
0 0 0 0 0 0 0 0 0 0 0 0 0 -0 -0 -0 -0 -0 -0 -0 -0 0 -0 -0 -0 -0 -0 0 -0 -0 -0 0 -0 -0 0 -0 0 0
Wind_Speed_500mb
15 9 11 8 10 11 13 15 19 31 31 31 37 37 38 41 42 50 47 45 43 54 64 64 63 52 55 59 52 51 49 44 44 49 55 53 47 46
4 4 8 5 8 13 15 19 23 25 33 37 41 43 49 47 44 52 55 50 49 54 62 68 69 51 59 62 48 50 55 47 48 54 58 57 49 45
11 10 10 10 8 13 16 19 22 25 32 37 40 46 50 49 64 51 58 49 44 54 59 65 50 52 65 60 44 47 52 55 61 67 67 62 52 44
5 8 6 9 9 13 16 22 25 27 33 41 44 46 49 52 48 62 57 47 51 45 61 59 45 54 58 55 45 49 54 59 66 69 69 62 49 38
5 6 11 12 14 17 18 25 23 28 32 37 43 46 49 50 59 58 54 55 46 49 53 38 49 46 55 49 53 53 58 69 68 77 76 59 42 33
4 6 10 16 19 21 18 22 25 31 33 38 42 48 48 49 52 53 63 52 52 48 38 48 49 41 49 38 42 46 59 75 72 82 67 45 38 34
3 11 19 26 22 25 25 30 35 35 35 38 41 45 46 51 52 53 51 56 49 38 42 58 54 51 39 48 40 59 67 66 74 76 49 41 36 33
7 11 18 22 26 27 33 34 38 44 40 38 40 44 45 47 48 50 50 53 61 41 62 53 47 48 50 49 59 58 56 69 71 53 47 41 41 36
7 5 4 20 28 31 36 32 30 37 41 41 43 42 46 44 46 47 48 50 55 56 60 52 43 54 46 44 52 49 58 62 53 51 43 45 39 33
6 6 8 24 36 43 43 36 33 28 29 40 38 43 37 47 44 37 46 53 46 48 51 52 55 59 61 34 33 50 58 66 46 41 41 46 46 36
22 31 33 33 40 41 39 37 36 32 39 29 38 43 41 43 47 48 40 58 56 55 36 57 70 68 67 28 32 55 53 63 43 37 39 45 46 49
11 26 36 38 39 41 41 39 40 42 39 43 34 31 33 33 37 41 41 58 53 55 44 68 57 64 49 24 69 52 62 52 39 35 36 39 49 54
9 16 31 38 38 40 42 44 42 41 45 35 33 31 31 31 32 36 49 44 50 52 52 61 63 61 52 67 67 56 61 38 43 38 41 45 42 49
13 21 27 36 40 47 44 45 46 41 35 34 33 34 36 36 36 45 41 44 45 39 48 52 53 52 52 56 54 65 56 34 43 44 49 49 41 33
19 34 42 40 41 33 44 48 40 37 38 37 37 36 36 35 43 44 42 40 36 39 42 46 44 44 35 35 46 55 55 32 46 46 48 44 45 40
18 27 30 34 34 34 32 33 34 38 38 37 38 37 36 37 41 42 51 51 40 42 41 45 40 35 29 39 42 51 44 37 43 43 40 44 45 47
30 22 26 29 31 33 34 34 35 38 39 38 39 40 39 39 40 44 50 55 45 51 56 52 42 37 22 35 49 50 45 41 38 41 37 41 48 52
25 25 29 31 33 34 36 36 36 40 40 38 39 39 42 42 45 44 47 59 56 46 53 52 51 49 44 28 46 57 50 39 36 34 40 43 48 46
25 27 29 30 32 34 35 36 38 39 39 38 39 40 41 42 45 46 47 59 58 49 52 47 46 47 49 43 43 55 59 41 34 32 35 43 43 48
25 27 28 29 31 33 35 36 37 39 40 39 39 40 42 43 45 47 48 55 63 52 58 50 42 41 39 31 37 47 53 47 36 32 35 41 42 50
24 25 27 28 30 32 34 35 37 40 41 41 41 41 42 43 44 45 49 54 62 61 63 56 41 34 24 22 29 38 49 50 43 40 31 45 55 58
22 23 26 28 29 31 33 34 36 38 39 39 41 41 42 43 44 45 48 55 60 61 60 50 38 32 25 20 26 38 37 41 38 51 58 64 54 66
20 22 23 26 28 30 32 34 36 37 38 40 41 40 43 47 45 44 45 50 58 55 65 56 39 33 24 20 29 28 29 21 41 57 58 61 65 66
Wind_Direction_500mb
337 29 54 345 316 336 334 337 349 342 334 332 333 333 332 328 328 325 333 316 323 324 320 322 323 314 328 325 329 332 329 323 323 326 329 322 309 296
41 2 101 328 4 332 330 332 325 323 319 323 325 327 325 329 325 330 327 335 325 318 318 316 317 318 331 329 324 335 336 323 319 327 326 326 314 304
19 5 22 5 347 341 324 328 315 318 318 314 320 321 329 323 329 321 331 327 321 314 309 306 317 328 333 330 330 331 331 331 328 327 325 325 318 300
36 340 7 347 359 342 326 326 321 323 321 317 316 324 324 326 325 320 326 322 316 321 308 325 323 330 324 326 327 327 327 328 324 323 320 323 316 306
26 337 333 333 334 323 333 318 326 325 322 315 322 320 322 325 320 322 323 321 324 320 319 323 310 318 321 322 325 323 328 328 325 326 326 322 317 307
345 354 332 309 326 327 341 320 324 326 322 326 320 320 325 321 321 327 324 330 325 321 327 310 325 325 322 331 315 321 329 324 322 324 323 322 314 308
352 350 322 319 321 329 336 328 329 327 328 326 323 324 325 327 330 326 326 327 323 315 326 329 334 322 336 324 312 318 318 317 319 324 326 326 322 312
300 313 326 317 317 324 327 333 341 335 327 326 324 324 325 327 323 327 328 328 327 338 331 325 322 332 336 323 319 315 318 320 325 331 332 330 326 317
319 296 315 311 311 325 327 337 327 323 328 319 322 321 325 326 327 330 329 330 327 328 325 325 336 330 321 316 318 316 317 330 335 336 337 335 338 333
305 353 344 304 330 330 333 331 330 336 307 308 327 341 331 339 342 332 329 326 326 330 334 331 334 327 330 330 323 308 323 338 338 338 336 336 335 329
340 343 334 328 331 332 338 337 340 334 336 343 349 343 341 343 343 334 335 335 333 335 332 321 333 331 338 333 316 329 345 338 340 339 336 340 342 344
320 352 328 331 342 347 353 351 349 350 0 3 345 344 340 341 342 340 332 333 333 334 330 331 335 342 331 336 337 347 341 345 351 347 349 341 341 347
333 328 323 344 352 3 6 1 5 7 6 348 345 348 348 347 345 333 330 336 334 332 334 335 333 335 330 322 334 342 348 351 360 358 354 353 355 349
4 358 357 10 20 10 9 16 15 8 356 355 354 353 351 349 342 335 336 336 332 337 332 334 332 331 327 328 331 343 353 7 7 5 358 358 0 9
16 8 12 14 13 5 2 7 8 3 3 360 357 354 352 345 348 343 348 340 344 343 342 341 339 335 339 333 334 351 354 8 12 9 4 9 12 5
38 5 7 11 8 5 3 3 2 4 4 0 356 352 350 351 355 353 350 352 351 344 0 360 2 357 357 353 0 1 8 8 11 12 14 27 29 25
45 16 13 12 10 7 5 3 2 2 2 0 357 355 354 354 352 352 0 360 359 351 2 5 13 16 7 351 8 12 10 16 15 14 13 26 26 31
34 23 17 13 10 5 4 2 2 358 360 358 357 356 355 355 352 350 355 359 1 352 1 4 6 10 21 9 14 15 17 14 17 20 20 32 34 37
27 23 16 12 7 5 3 1 360 356 358 358 356 356 355 356 355 352 353 359 0 358 3 6 6 7 1 2 13 21 17 19 19 29 39 44 46 48
23 17 13 9 6 3 2 0 360 356 357 358 356 356 355 357 355 355 352 354 359 357 6 7 6 7 356 351 7 24 20 26 33 47 59 64 61 66
18 14 8 6 4 2 0 360 359 357 357 358 356 356 356 357 355 356 353 352 354 359 2 4 1 2 3 27 27 21 12 27 45 52 61 70 67 63
15 14 5 2 2 360 359 359 357 356 356 357 356 356 356 357 355 354 354 352 352 356 359 1 0 6 12 15 6 19 16 9 52 66 67 66 74 68
11 11 3 0 357 358 358 359 356 355 356 356 354 357 356 353 357 353 354 352 351 353 359 3 5 10 11 8 3 20 28 36 37 62 62 68 70 71
Wind_Speed_850mb
15 9 11 8 10 11 13 15 19 31 31 31 37 37 38 41 42 50 47 45 43 54 64 64 63 52 55 59 52 51 49 44 44 49 55 53 47 46
4 4 8 5 8 13 15 19 23 25 33 37 41 43 49 47 44 52 55 50 49 54 62 68 69 51 59 62 48 50 55 47 48 54 58 57 49 45
11 10 10 10 8 13 16 19 22 25 32 37 40 46 50 49 64 51 58 49 44 54 59 65 50 52 65 60 44 47 52 55 61 67 67 62 52 44
5 8 6 9 9 13 16 22 25 27 33 41 44 46 49 52 48 62 57 47 51 45 61 59 45 54 58 55 45 49 54 59 66 69 69 62 49 38
5 6 11 12 14 17 18 25 23 28 32 37 43 46 49 50 59 58 54 55 46 49 53 38 49 46 55 49 53 53 58 69 68 77 76 59 42 33
4 6 10 16 19 21 18 22 25 31 33 38 42 48 48 49 52 53 63 52 52 48 38 48 49 41 49 38 42 46 59 75 72 82 67 45 38 34
3 11 19 26 22 25 25 30 35 35 35 38 41 45 46 51 52 53 51 56 49 38 42 58 54 51 39 48 40 59 67 66 74 76 49 41 36 33
7 11 18 22 26 27 33 34 38 44 40 38 40 44 45 47 48 50 50 53 61 41 62 53 47 48 50 49 59 58 56 69 71 53 47 41 41 36
7 5 4 20 28 31 36 32 30 37 41 41 43 42 46 44 46 47 48 50 55 56 60 52 43 54 46 44 52 49 58 62 53 51 43 45 39 33
6 6 8 24 36 43 43 36 33 28 29 40 38 43 37 47 44 37 46 53 46 48 51 52 55 59 61 34 33 50 58 66 46 41 41 46 46 36
22 31 33 33 40 41 39 37 36 32 39 29 38 43 41 43 47 48 40 58 56 55 36 57 70 68 67 28 32 55 53 63 43 37 39 45 46 49
11 26 36 38 39 41 41 39 40 42 39 43 34 31 33 33 37 41 41 58 53 55 44 68 57 64 49 24 69 52 62 52 39 35 36 39 49 54
9 16 31 38 38 40 42 44 42 41 45 35 33 31 31 31 32 36 49 44 50 52 52 61 63 61 52 67 67 56 61 38 43 38 41 45 42 49
13 21 27 36 40 47 44 45 46 41 35 34 33 34 36 36 36 45 41 44 45 39 48 52 53 52 52 56 54 65 56 34 43 44 49 49 41 33
19 34 42 40 41 33 44 48 40 37 38 37 37 36 36 35 43 44 42 40 36 39 42 46 44 44 35 35 46 55 55 32 46 46 48 44 45 40
18 27 30 34 34 34 32 33 34 38 38 37 38 37 36 37 41 42 51 51 40 42 41 45 40 35 29 39 42 51 44 37 43 43 40 44 45 47
30 22 26 29 31 33 34 34 35 38 39 38 39 40 39 39 40 44 50 55 45 51 56 52 42 37 22 35 49 50 45 41 38 41 37 41 48 52
25 25 29 31 33 34 36 36 36 40 40 38 39 39 42 42 45 44 47 59 56 46 53 52 51 49 44 28 46 57 50 39 36 34 40 43 48 46
25 27 29 30 32 34 35 36 38 39 39 38 39 40 41 42 45 46 47 59 58 49 52 47 46 47 49 43 43 55 59 41 34 32 35 43 43 48
25 27 28 29 31 33 35 36 37 39 40 39 39 40 42 43 45 47 48 55 63 52 58 50 42 41 39 31 37 47 53 47 36 32 35 41 42 50
24 25 27 28 30 32 34 35 37 40 41 41 41 41 42 43 44 45 49 54 62 61 63 56 41 34 24 22 29 38 49 50 43 40 31 45 55 58
22 23 26 28 29 31 33 34 36 38 39 39 41 41 42 43 44 45 48 55 60 61 60 50 38 32 25 20 26 38 37 41 38 51 58 64 54 66
20 22 23 26 28 30 32 34 36 37 38 40 41 40 43 47 45 44 45 50 58 55 65 56 39 33 24 20 29 28 29 21 41 57 58 61 65 66
Wind_Direction_850mb
337 29 54 345 316 336 334 337 349 342 334 332 333 333 332 328 328 325 333 316 323 324 320 322 323 314 328 325 329 332 329 323 323 326 329 322 309 296
41 2 101 328 4 332 330 332 325 323 319 323 325 327 325 329 325 330 327 335 325 318 318 316 317 318 331 329 324 335 336 323 319 327 326 326 314 304
19 5 22 5 347 341 324 328 315 318 318 314 320 321 329 323 329 321 331 327 321 314 309 306 317 328 333 330 330 331 331 331 328 327 325 325 318 300
36 340 7 347 359 342 326 326 321 323 321 317 316 324 324 326 325 320 326 322 316 321 308 325 323 330 324 326 327 327 327 328 324 323 320 323 316 306
26 337 333 333 334 323 333 318 326 325 322 315 322 320 322 325 320 322 323 321 324 320 319 323 310 318 321 322 325 323 328 328 325 326 326 322 317 307
345 354 332 309 326 327 341 320 324 326 322 326 320 320 325 321 321 327 324 330 325 321 327 310 325 325 322 331 315 321 329 324 322 324 323 322 314 308
352 350 322 319 321 329 336 328 329 327 328 326 323 324 325 327 330 326 326 327 323 315 326 329 334 322 336 324 312 318 318 317 319 324 326 326 322 312
300 313 326 317 317 324 327 333 341 335 327 326 324 324 325 327 323 327 328 328 327 338 331 325 322 332 336 323 319 315 318 320 325 331 332 330 326 317
319 296 315 311 311 325 327 337 327 323 328 319 322 321 325 326 327 330 329 330 327 328 325 325 336 330 321 316 318 316 317 330 335 336 337 335 338 333
305 353 344 304 330 330 333 331 330 336 307 308 327 341 331 339 342 332 329 326 326 330 334 331 334 327 330 330 323 308 323 338 338 338 336 336 335 329
340 343 334 328 331 332 338 337 340 334 336 343 349 343 341 343 343 334 335 335 333 335 332 321 333 331 338 333 316 329 345 338 340 339 336 340 342 344
320 352 328 331 342 347 353 351 349 350 0 3 345 344 340 341 342 340 332 333 333 334 330 331 335 342 331 336 337 347 341 345 351 347 349 341 341 347
333 328 323 344 352 3 6 1 5 7 6 348 345 348 348 347 345 333 330 336 334 332 334 335 333 335 330 322 334 342 348 351 360 358 354 353 355 349
4 358 357 10 20 10 9 16 15 8 356 355 354 353 351 349 342 335 336 336 332 337 332 334 332 331 327 328 331 343 353 7 7 5 358 358 0 9
16 8 12 14 13 5 2 7 8 3 3 360 357 354 352 345 348 343 348 340 344 343 342 341 339 335 339 333 334 351 354 8 12 9 4 9 12 5
38 5 7 11 8 5 3 3 2 4 4 0 356 352 350 351 355 353 350 352 351 344 0 360 2 357 357 353 0 1 8 8 11 12 14 27 29 25
45 16 13 12 10 7 5 3 2 2 2 0 357 355 354 354 352 352 0 360 359 351 2 5 13 16 7 351 8 12 10 16 15 14 13 26 26 31
34 23 17 13 10 5 4 2 2 358 360 358 357 356 355 355 352 350 355 359 1 352 1 4 6 10 21 9 14 15 17 14 17 20 20 32 34 37
27 23 16 12 7 5 3 1 360 356 358 358 356 356 355 356 355 352 353 359 0 358 3 6 6 7 1 2 13 21 17 19 19 29 39 44 46 48
23 17 13 9 6 3 2 0 360 356 357 358 356 356 355 357 355 355 352 354 359 357 6 7 6 7 356 351 7 24 20 26 33 47 59 64 61 66
18 14 8 6 4 2 0 360 359 357 357 358 356 356 356 357 355 356 353 352 354 359 2 4 1 2 3 27 27 21 12 27 45 52 61 70 67 63
15 14 5 2 2 360 359 359 357 356 356 357 356 356 356 357 355 354 354 352 352 356 359 1 0 6 12 15 6 19 16 9 52 66 67 66 74 68
11 11 3 0 357 358 358 359 356 355 356 356 354 357 356 353 357 353 354 352 351 353 359 3 5 10 11 8 3 20 28 36 37 62 62 68 70 71